• Em Portugal
  • Lista de países
  • Para 7 dias
  • Temperatura da água
  • Mapas de satélite
  • Mapa do tempo
  • Widgets de tempo
  • user-avatar
    Iniciar Sessão

    Previsão horária em Halhgol

    Hoje, 19 Fevereiro, Segunda-feira

    Tempo Temperatura Precipitação Vento Pressão Humidade
    00:00 -26°C° 0 mm 3 m/s 704 mmHg 93%
    01:00 -27°C° 0 mm 3 m/s 704 mmHg 93%
    02:00 -27°C° 0 mm 3 m/s 704 mmHg 92%
    03:00 -27°C° 0 mm 3 m/s 704 mmHg 91%
    04:00 -27°C° 0 mm 3 m/s 704 mmHg 91%
    05:00 -27°C° 0 mm 3 m/s 704 mmHg 90%
    06:00 -27°C° 0 mm 3 m/s 704 mmHg 90%
    07:00 -27°C° 0 mm 3 m/s 704 mmHg 90%
    08:00 -27°C° 0 mm 3 m/s 703 mmHg 91%
    09:00 -25°C° 0 mm 3 m/s 704 mmHg 91%
    10:00 -24°C° 0 mm 4 m/s 704 mmHg 90%
    11:00 -23°C° 0 mm 4 m/s 704 mmHg 90%
    12:00 -22°C° 0 mm 5 m/s 704 mmHg 88%
    13:00 -21°C° 0 mm 5 m/s 703 mmHg 87%
    14:00 -20°C° 0 mm 5 m/s 703 mmHg 85%
    15:00 -21°C° 0 mm 5 m/s 703 mmHg 87%
    16:00 -22°C° 0 mm 4 m/s 703 mmHg 88%
    17:00 -22°C° 0 mm 3 m/s 703 mmHg 90%
    18:00 -23°C° 0 mm 3 m/s 703 mmHg 91%
    19:00 -24°C° 0 mm 3 m/s 703 mmHg 92%
    20:00 -25°C° 0 mm 3 m/s 703 mmHg 93%
    21:00 -26°C° 0 mm 3 m/s 703 mmHg 93%
    22:00 -26°C° 0 mm 3 m/s 703 mmHg 93%
    23:00 -27°C° 0 mm 3 m/s 703 mmHg 93%

    Amanhã, 20 Fevereiro, Terça-feira

    Tempo Temperatura Precipitação Vento Pressão Humidade
    00:00 -27°C° 0 mm 3 m/s 703 mmHg 93%
    01:00 -27°C° 0 mm 3 m/s 703 mmHg 92%
    02:00 -27°C° 0 mm 3 m/s 703 mmHg 92%
    03:00 -27°C° 0 mm 3 m/s 703 mmHg 92%
    04:00 -27°C° 0 mm 3 m/s 703 mmHg 92%
    05:00 -27°C° 0 mm 3 m/s 703 mmHg 92%
    06:00 -27°C° 0 mm 3 m/s 703 mmHg 92%
    07:00 -27°C° 0 mm 3 m/s 703 mmHg 92%
    08:00 -27°C° 0 mm 3 m/s 703 mmHg 93%
    09:00 -26°C° 0 mm 4 m/s 703 mmHg 92%
    10:00 -24°C° 0 mm 4 m/s 703 mmHg 90%
    11:00 -22°C° 0 mm 4 m/s 704 mmHg 89%
    12:00 -22°C° 0 mm 5 m/s 703 mmHg 87%
    13:00 -21°C° 0 mm 5 m/s 703 mmHg 86%
    14:00 -20°C° 0 mm 5 m/s 703 mmHg 84%
    15:00 -21°C° 0 mm 5 m/s 703 mmHg 86%
    16:00 -22°C° 0 mm 4 m/s 703 mmHg 88%
    17:00 -22°C° 0 mm 3 m/s 703 mmHg 89%
    18:00 -22°C° 0 mm 3 m/s 703 mmHg 90%
    19:00 -23°C° 0 mm 3 m/s 703 mmHg 90%
    20:00 -24°C° 0 mm 3 m/s 703 mmHg 91%
    21:00 -24°C° 0 mm 3 m/s 702 mmHg 91%
    22:00 -24°C° 0 mm 3 m/s 702 mmHg 90%
    23:00 -24°C° 0 mm 3 m/s 702 mmHg 90%

    Depois de amanhã, 21 Fevereiro, Quarta-feira

    Tempo Temperatura Precipitação Vento Pressão Humidade
    00:00 -25°C° 0 mm 4 m/s 702 mmHg 89%
    01:00 -24°C° 0 mm 4 m/s 701 mmHg 88%
    02:00 -24°C° 0 mm 4 m/s 701 mmHg 87%
    03:00 -24°C° 0 mm 4 m/s 700 mmHg 87%
    04:00 -24°C° 0 mm 4 m/s 700 mmHg 87%
    05:00 -25°C° 0 mm 5 m/s 699 mmHg 88%
    06:00 -24°C° 0,1 mm 5 m/s 699 mmHg 89%
    07:00 -22°C° 0,1 mm 5 m/s 699 mmHg 90%
    08:00 -22°C° 0,1 mm 5 m/s 698 mmHg 91%
    09:00 -21°C° 0,1 mm 6 m/s 698 mmHg 89%
    10:00 -20°C° 0,1 mm 6 m/s 698 mmHg 86%
    11:00 -18°C° 0,1 mm 7 m/s 698 mmHg 84%
    12:00 -18°C° 0 mm 7 m/s 698 mmHg 82%
    13:00 -18°C° 0 mm 7 m/s 697 mmHg 80%
    14:00 -18°C° 0 mm 7 m/s 697 mmHg 78%
    15:00 -18°C° 0 mm 6 m/s 697 mmHg 80%
    16:00 -19°C° 0 mm 5 m/s 697 mmHg 82%
    17:00 -19°C° 0 mm 4 m/s 697 mmHg 84%
    18:00 -19°C° 0 mm 3 m/s 697 mmHg 85%
    19:00 -22°C° 0 mm 3 m/s 697 mmHg 86%
    20:00 -23°C° 0 mm 3 m/s 697 mmHg 88%
    21:00 -24°C° 0 mm 3 m/s 697 mmHg 88%
    22:00 -23°C° 0 mm 2 m/s 697 mmHg 88%
    23:00 -24°C° 0 mm 2 m/s 697 mmHg 88%

    22 Fevereiro, Quinta-feira

    Tempo Temperatura Precipitação Vento Pressão Humidade
    00:00 -24°C° 0 mm 2 m/s 697 mmHg 88%
    01:00 -25°C° 0 mm 2 m/s 697 mmHg 88%
    02:00 -25°C° 0 mm 2 m/s 697 mmHg 88%
    03:00 -25°C° 0 mm 2 m/s 697 mmHg 89%
    04:00 -25°C° 0 mm 2 m/s 697 mmHg 89%
    05:00 -25°C° 0 mm 2 m/s 696 mmHg 89%
    06:00 -25°C° 0 mm 2 m/s 697 mmHg 91%
    07:00 -25°C° 0 mm 3 m/s 697 mmHg 92%
    08:00 -25°C° 0 mm 3 m/s 697 mmHg 93%
    09:00 -23°C° 0,1 mm 3 m/s 697 mmHg 93%
    10:00 -22°C° 0,1 mm 4 m/s 697 mmHg 93%
    11:00 -19°C° 0,1 mm 4 m/s 697 mmHg 92%
    12:00 -19°C° 0 mm 4 m/s 696 mmHg 91%
    13:00 -18°C° 0 mm 4 m/s 696 mmHg 90%
    14:00 -17°C° 0 mm 4 m/s 696 mmHg 89%
    15:00 -18°C° 0 mm 4 m/s 696 mmHg 91%
    16:00 -19°C° 0 mm 3 m/s 696 mmHg 93%
    17:00 -19°C° 0 mm 2 m/s 696 mmHg 95%
    18:00 -21°C° 0 mm 2 m/s 696 mmHg 97%
    19:00 -20°C° 0 mm 1 m/s 696 mmHg 98%
    20:00 -22°C° 0 mm 1 m/s 697 mmHg 99%
    21:00 -23°C° 0 mm 1 m/s 697 mmHg 99%
    22:00 -23°C° 0 mm 0 m/s 697 mmHg 99%
    23:00 -24°C° 0 mm 0 m/s 698 mmHg 99%

    23 Fevereiro, Sexta-feira

    Tempo Temperatura Precipitação Vento Pressão Humidade
    00:00 -25°C° 0 mm 0 m/s 698 mmHg 99%
    01:00 -25°C° 0 mm 0 m/s 698 mmHg 99%
    02:00 -25°C° 0 mm 0 m/s 699 mmHg 99%
    03:00 -26°C° 0 mm 0 m/s 699 mmHg 99%
    04:00 -26°C° 0 mm 0 m/s 700 mmHg 99%
    05:00 -26°C° 0 mm 0 m/s 700 mmHg 99%
    06:00 -26°C° 0 mm 0 m/s 701 mmHg 99%
    07:00 -26°C° 0 mm 0 m/s 701 mmHg 99%
    08:00 -26°C° 0 mm 0 m/s 702 mmHg 99%
    09:00 -24°C° 0 mm 0 m/s 703 mmHg 96%
    10:00 -22°C° 0 mm 1 m/s 703 mmHg 94%
    11:00 -20°C° 0 mm 1 m/s 704 mmHg 92%
    12:00 -20°C° 0 mm 1 m/s 704 mmHg 91%
    13:00 -19°C° 0 mm 1 m/s 704 mmHg 90%
    14:00 -18°C° 0 mm 1 m/s 704 mmHg 89%
    15:00 -19°C° 0 mm 1 m/s 704 mmHg 91%
    16:00 -21°C° 0 mm 1 m/s 704 mmHg 93%
    17:00 -22°C° 0 mm 1 m/s 705 mmHg 96%
    18:00 -22°C° 0 mm 1 m/s 705 mmHg 95%
    19:00 -26°C° 0 mm 2 m/s 705 mmHg 94%
    20:00 -27°C° 0 mm 2 m/s 706 mmHg 93%
    21:00 -27°C° 0 mm 2 m/s 706 mmHg 92%
    22:00 -27°C° 0 mm 2 m/s 706 mmHg 90%
    23:00 -29°C° 0 mm 3 m/s 706 mmHg 88%

    24 Fevereiro, Sábado

    Tempo Temperatura Precipitação Vento Pressão Humidade
    00:00 -29°C° 0 mm 3 m/s 706 mmHg 87%
    01:00 -29°C° 0 mm 3 m/s 706 mmHg 85%
    02:00 -29°C° 0 mm 3 m/s 706 mmHg 84%
    03:00 -29°C° 0 mm 3 m/s 706 mmHg 84%
    04:00 -29°C° 0 mm 3 m/s 706 mmHg 84%
    05:00 -29°C° 0 mm 3 m/s 706 mmHg 84%
    06:00 -29°C° 0 mm 3 m/s 706 mmHg 85%
    07:00 -27°C° 0 mm 3 m/s 706 mmHg 86%
    08:00 -27°C° 0 mm 3 m/s 706 mmHg 86%
    09:00 -26°C° 0 mm 4 m/s 706 mmHg 86%
    10:00 -24°C° 0 mm 4 m/s 705 mmHg 85%
    11:00 -22°C° 0 mm 4 m/s 705 mmHg 84%
    12:00 -20°C° 0 mm 4 m/s 705 mmHg 84%
    13:00 -19°C° 0 mm 4 m/s 704 mmHg 84%
    14:00 -17°C° 0 mm 3 m/s 704 mmHg 84%
    15:00 -17°C° 0 mm 3 m/s 703 mmHg 85%
    16:00 -17°C° 0 mm 3 m/s 703 mmHg 86%
    17:00 -18°C° 0 mm 3 m/s 703 mmHg 87%
    18:00 -18°C° 0 mm 3 m/s 703 mmHg 87%
    19:00 -18°C° 0 mm 3 m/s 703 mmHg 87%
    20:00 -18°C° 0 mm 3 m/s 703 mmHg 87%
    21:00 -18°C° 0,1 mm 3 m/s 703 mmHg 88%
    22:00 -17°C° 0,1 mm 3 m/s 703 mmHg 90%
    23:00 -17°C° 0,1 mm 3 m/s 703 mmHg 91%
    Mostrar mais